Weather History for Keahole Point, HI

Change the Weather History Date:

Wednesday, November 7, 2012

  Actual Average Record
Temperature  
Mean Temperature 78 °F -  
Max Temperature 84 °F 82 °F 91 °F (1983)
Min Temperature 73 °F 71 °F 69 °F (1984)
Cooling Degree Days 14    
Growing Degree Days 28 (Base 50)    
Moisture  
Dew Point 64 °F    
Average Humidity 60    
Maximum Humidity 71    
Minimum Humidity 53    
Precipitation  
Precipitation 0.00 in - - ()
Sea Level Pressure  
Sea Level Pressure 29.95 in    
Wind  
Wind Speed 6 mph (SSE)    
Max Wind Speed 10 mph    
Max Gust Speed -    
Visibility 10 miles    
Events      
Averages and records for this station are not official NWS values.
T = Trace of Precipitation, MM = Missing Value Source: NWS Daily Summary

Daily Weather History Graph

Daily Weather History Graph

Search for Another Location

Airport:

Trip Planner

Search our weather history database for the weather conditions in past years. The results will help you decide how hot, cold, wet, or windy it might be!

Date:

Astronomy

Nov. 07, 2012 Rise Set
Actual Time 6:28 AM HST 5:46 PM HST
Civil Twilight 6:05 AM HST 6:09 PM HST
Nautical Twilight 5:39 AM HST 6:36 PM HST
Astronomical Twilight 5:13 AM HST 7:02 PM HST
Moon 12:26 AM HST (11/7) 1:14 PM HST (11/7)
Length of Visible Light 12h 04m
Length of Day
11h 18m
Last Quarter, 41% of the Moon is Illuminated
Nov 7
Last Quarter
Nov 13
New
Nov 20
First Quarter
Nov 28
Full
Dec 6
Last Quarter

Hourly Weather History & Observations

Time (HST) Temp. Heat Index Dew Point Humidity Pressure Visibility Wind Dir Wind Speed Gust Speed Precip Events Conditions
12:53 AM 77.0 °F - 66.0 °F 69% 29.91 in 10.0 mi East 6.9 mph - N/A   Clear
1:53 AM 75.0 °F - 64.9 °F 71% 29.90 in 10.0 mi Calm Calm - N/A   Clear
2:53 AM 75.0 °F - 64.0 °F 69% 29.90 in 10.0 mi ESE 5.8 mph - N/A   Clear
3:53 AM 75.0 °F - 64.0 °F 69% 29.90 in 10.0 mi NNE 3.5 mph - N/A   Clear
4:53 AM 73.9 °F - 63.0 °F 68% 29.91 in 10.0 mi NE 4.6 mph - N/A   Clear
5:53 AM 75.0 °F - 63.0 °F 66% 29.92 in 10.0 mi SE 8.1 mph - N/A   Partly Cloudy
6:53 AM 75.9 °F - 62.1 °F 62% 29.94 in 10.0 mi ESE 8.1 mph - N/A   Clear
7:53 AM 79.0 °F - 62.1 °F 56% 29.97 in 10.0 mi WNW 3.5 mph - N/A   Overcast
8:53 AM 81.0 °F 82.5 °F 64.0 °F 56% 29.99 in 10.0 mi Calm Calm - N/A   Scattered Clouds
9:53 AM 81.0 °F 82.7 °F 64.9 °F 58% 29.99 in 10.0 mi NW 6.9 mph - N/A   Partly Cloudy
10:53 AM 82.9 °F 84.6 °F 64.9 °F 54% 29.98 in 10.0 mi WNW 8.1 mph - N/A   Clear
11:53 AM 84.0 °F 85.8 °F 64.9 °F 53% 29.96 in 10.0 mi West 9.2 mph - N/A   Scattered Clouds
12:53 PM 82.9 °F 84.6 °F 64.9 °F 54% 29.94 in 10.0 mi West 9.2 mph - N/A   Mostly Cloudy
1:53 PM 84.0 °F 85.8 °F 64.9 °F 53% 29.91 in 10.0 mi West 8.1 mph - N/A   Clear
2:53 PM 82.9 °F 84.6 °F 64.9 °F 54% 29.90 in 10.0 mi WSW 6.9 mph - N/A   Clear
3:53 PM 82.9 °F 85.0 °F 66.0 °F 56% 29.90 in 10.0 mi WSW 6.9 mph - N/A   Clear
4:53 PM 82.9 °F 84.6 °F 64.9 °F 54% 29.91 in 10.0 mi South 8.1 mph - N/A   Clear
5:53 PM 82.0 °F 83.4 °F 64.0 °F 54% 29.93 in 10.0 mi South 9.2 mph - N/A   Clear
6:53 PM 81.0 °F 82.7 °F 64.9 °F 58% 29.95 in 10.0 mi SSE 10.4 mph - N/A   Scattered Clouds
7:53 PM 80.1 °F 82.1 °F 66.0 °F 62% 29.97 in 10.0 mi SSE 8.1 mph - N/A   Clear
8:53 PM 79.0 °F - 64.9 °F 62% 29.99 in 10.0 mi SE 5.8 mph - N/A   Partly Cloudy
9:53 PM 78.1 °F - 64.9 °F 64% 30.00 in 10.0 mi ESE 9.2 mph - N/A   Clear
10:53 PM 77.0 °F - 63.0 °F 62% 30.01 in 10.0 mi ENE 5.8 mph - N/A   Clear
11:53 PM 75.0 °F - 63.0 °F 66% 30.01 in 10.0 mi ENE 5.8 mph - N/A   Clear